Hourly Data Report for October 09, 2013

All times are specified in Local Standard Time (LST). Add 1 hour to adjust for Daylight Saving Time where and when it is observed.

CHARLOTTETOWN A
PRINCE EDWARD ISLAND

46°17'21.000" N
63°07'09.000" W
48.50 m
8300301
71706
YYG

Download Data

Hourly Data (October 2013)
Hourly Data Report for October 9, 2013
Temp Definition
°C
Dew Point Temp Definition
°C
Rel Hum Definition
%
Wind Dir Definition
10's deg

Wind Spd Definition
km/h
Visibility Definition
km
Stn Press Definition
kPa
Hmdx Definition


Wind Chill Definition


Weather Definition


TIME
00:00 Legend Double Dagger 8.0 2.7 69 29 9 24.1 101.93     LegendNANA
01:00 Legend Double Dagger 6.0 2.1 76 25 9 24.1 102.00     LegendNANA
02:00 Legend Double Dagger 6.0 2.7 79 26 9 24.1 102.01     Clear
03:00 Legend Double Dagger 7.3 2.8 73 28 11 24.1 102.06     LegendNANA
04:00 Legend Double Dagger 5.6 3.0 83 29 7 24.1 102.12     LegendNANA
05:00 Legend Double Dagger 6.1 3.3 82 28 10 24.1 102.14     Clear
06:00 Legend Double Dagger 4.3 2.7 89 26 10 24.1 102.22     LegendNANA
07:00 Legend Double Dagger 6.0 3.3 83 27 14 24.1 102.26     LegendNANA
08:00 Legend Double Dagger 8.2 4.6 78 29 12 24.1 102.33     Mainly Clear
09:00 Legend Double Dagger 10.1 5.1 71 28 13 24.1 102.36     LegendNANA
10:00 Legend Double Dagger 10.7 5.5 70 31 12 24.1 102.33     LegendNANA
11:00 Legend Double Dagger 11.8 4.8 62 31 13 24.1 102.31     Mainly Clear
12:00 Legend Double Dagger 12.8 4.3 56 34 10 24.1 102.26     LegendNANA
13:00 Legend Double Dagger 13.5 5.2 57 30 9 24.1 102.22     LegendNANA
14:00 Legend Double Dagger 13.6 6.3 61 32 8 24.1 102.19     Mainly Clear
15:00 Legend Double Dagger 13.8 5.7 58 27 16 24.1 102.19     LegendNANA
16:00 Legend Double Dagger 13.4 5.4 58 26 12 24.1 102.14     LegendNANA
17:00 Legend Double Dagger 12.5 4.8 59 28 3 24.1 102.15     Mainly Clear
18:00 Legend Double Dagger 9.1 6.2 82 23 1 24.1 102.15     LegendNANA
19:00 Legend Double Dagger 7.3 5.5 88 21 2 24.1 102.13     LegendNANA
20:00 Legend Double Dagger 8.6 6.2 85 18 7 24.1 102.11     Clear
21:00 Legend Double Dagger 9.1 6.2 82 21 13 24.1 102.10     LegendNANA
22:00 Legend Double Dagger 9.2 7.2 87 21 12 24.1 102.08     LegendNANA
23:00 Legend Double Dagger 8.8 7.1 89 22 10 24.1 102.05     Clear

Notes on Data Quality.

Legend

  • E = Estimated
  • M = Missing
  • NA = Not Available
  • ‡ = Partner data that is not subject to review by the National Climate Archives
Date modified: